Location: Unspecified
(0.0000°N, 0.0000°E)
Time: 04:46:03
(UTC+01:00)

Daily predictions for brighter satellites

Satellite Brightness Start Highest point End
(mag) Time Altitude Azimuth Time Altitude Azimuth Time Altitude Azimuth
ARIANE 5 R/B 4.4 03:39:50 56° E 03:39:50 56° E 04:21:22 10° E
Ariane H10 4.5 04:36:42 22° ESE 04:36:42 22° ESE 04:37:45 10° ESE
Hubble Space Telescope 3.8 04:45:19 13° SE 04:45:19 13° SE 04:45:49 10° SE
Cosmos 44 Rocket 4.4 04:54:07 44° ESE 04:54:07 44° ESE 04:58:02 10° SE
IUS-1 SRM-2 4.3 04:59:23 53° SW 05:00:37 59° SSW 05:32:03 10° ESE
Centaur D-1A AC-35 3.7 05:02:38 32° S 05:03:19 34° SSE 05:06:45 10° E
ATLAS 2A CENTAUR R/B 4.1 05:00:22 50° NW 05:04:56 84° NNE 05:35:39 10° ESE
CZ-4B R/B 4.2 05:09:23 33° SSW 05:09:23 33° SSW 05:12:19 10° SSW
Delta 142 4.3 05:10:16 54° SE 05:10:16 54° SE 05:13:40 10° ESE
ARIANE 44LP R/B 4.5 05:06:47 48° WNW 05:09:19 58° NNW 05:14:01 10° ENE
Ariane H10-3 4.2 05:11:19 15° ESE 05:11:19 15° ESE 05:11:44 10° ESE
Ariane H10 3.2 05:16:18 59° NW 05:17:28 71° NNE 05:40:36 10° E
SWIFT 3.9 05:20:30 26° NE 05:20:30 26° NE 05:23:15 10° E
IRS-1C Rocket 4.0 05:21:20 71° WSW 05:21:20 71° WSW 05:26:13 10° SSW
USA 161 4.3 05:18:48 10° SSE 05:19:41 17° SSE 05:19:41 17° SSE
GPS 2-12 Rocket1 3.2 05:26:18 60° NE 05:26:18 60° NE 05:30:13 10° ENE
Atlas Centaur 2 3.0 05:30:31 20° NE 05:30:31 20° NE 05:33:17 10° E
deb Ariane 2.8 05:33:50 64° E 05:33:50 64° E 05:36:38 10° E
Lacrosse 5 3.3 05:30:57 18° N 05:33:51 32° ENE 05:38:20 10° ESE
ARIANE 5 R/B 2.0 05:38:35 51° SSW 05:38:36 51° SSW 05:40:44 10° ESE
CZ-2C R/B 4.1 05:34:44 10° NE 05:39:05 34° ESE 05:43:34 10° SSE
GPS 2-17 Rocket1 4.2 05:41:34 26° SW 05:42:16 27° SSW 05:46:00 10° SE
GPS 2-14 Rocket1 2.9 05:42:53 51° N 05:42:53 51° N 05:46:34 10° NE
BLOCK DM-SL R/B 3.2 05:41:32 41° WNW 05:43:30 75° N 06:13:16 10° E
BLOCK DM-SL R/B 3.2 05:41:32 41° WNW 05:43:31 75° N 06:13:16 10° E
ISS -3.6 05:43:44 64° NE 05:43:46 64° NE 05:47:01 10° SE
Ariane H10-3 1.7 05:43:22 47° WSW 05:44:10 65° S 05:50:58 10° E
BLOCK DM-SL R/B 4.0 05:38:29 26° W 05:45:41 89° S 05:50:28 10° E
Meteor 1-16 Rocket 4.2 05:40:49 10° SSW 05:46:32 60° W 05:52:03 10° N
CZ-3 R/B 3.2 05:18:44 10° WSW 05:47:02 52° NW 05:54:00 10° NE
Meteor 2-19 Rocket 4.4 05:43:27 10° S 05:49:33 86° E 05:55:36 10° N
ARIANE 5 DEB (SYLDA) 4.3 05:44:08 22° W 05:51:49 78° S 05:56:36 10° E
Lacrosse 5 rocket 1.0 05:51:01 10° SSW 05:54:39 80° ESE 05:58:14 10° NNE
OE (NEXTSAT) 4.2 05:54:14 47° WSW 05:55:04 68° NW 05:58:34 10° NE
IDEFIX/ARIANE 42P 2.5 05:51:02 10° NNE 05:56:17 89° W 06:01:32 10° SSW
KORONAS-FOTON 4.1 05:57:22 40° WNW 05:57:53 42° W 06:01:36 10° SSW
Cosmos 1486 Rocket 4.2 05:54:19 10° S 05:59:36 76° ESE 06:04:54 10° NNE
Meteor 1-28 Rocket 3.4 05:58:49 10° SSE 06:02:33 71° E 06:06:18 10° N
Geosat 4.2 05:59:10 10° S 06:04:01 50° WSW 06:07:16 20° NW
Cosmos 1842 Rocket 4.3 06:00:13 10° S 06:04:35 57° E 06:08:57 10° NNE
NOAA 6 4.1 06:01:55 10° N 06:06:55 52° WNW 06:11:57 10° SSW
Cosmos-2242 3.7 06:05:57 10° SSW 06:09:49 31° W 06:13:07 13° NNW
Ariane 3 Deb 2.4 06:11:39 28° NW 06:12:18 34° N 06:15:06 10° ENE
Feng Yun 1-1 Rocket 4.4 06:07:15 10° N 06:12:26 48° WNW 06:17:42 10° SSW
Radarsat Rocket 3.9 06:07:01 10° N 06:12:48 65° WNW 06:18:36 10° SSW
Cosmos 1908 3.7 06:09:10 10° S 06:13:03 64° E 06:16:55 10° NNE
MSX 3.9 06:08:04 10° NNE 06:13:49 83° ESE 06:19:34 10° S
Cosmos 1626 4.0 06:12:01 10° NNE 06:15:23 32° E 06:18:45 10° SSE
Cosmos 2184 Rocket 4.2 06:10:42 10° SSW 06:16:38 49° W 06:22:38 10° NNW
NOSS 2-3 (E) 4.0 06:15:09 10° SSW 06:19:58 72° ESE 06:24:26 10° NNE
Okean 3 Rocket 3.6 06:15:47 10° NNW 06:20:04 58° W 06:24:23 10° S
Cosmos 1315 Rocket 2.8 06:17:26 10° N 06:21:29 81° W 06:25:36 10° S
Cosmos 1818 4.2 06:19:56 10° SW 06:24:37 30° WNW 06:29:18 10° N
COSMOS 2406 3.2 06:25:55 10° NNW 06:31:30 65° WSW 06:37:08 10° S
Meteor 2-1 Rocket 4.2 06:26:40 10° SSW 06:32:06 60° W 06:37:29 10° N
ARIANE 44LP R/B 4.1 06:13:08 10° W 06:32:17 78° N 06:35:47 10° E
COSMOS 2441 4.4 06:29:30 10° N 06:34:16 63° WNW 06:39:06 10° SSW
Ariane H10+ 2.3 06:35:32 10° SW 06:36:46 21° S 06:38:08 10° ESE
Okean-O 3.8 06:36:35 10° NNW 06:39:54 21° WNW 06:43:14 10° SW
SKYMED 2 3.7 06:36:47 10° SSE 06:41:08 79° ENE 06:45:27 10° N
Cosmos 1328 3.9 06:38:19 10° NNW 06:42:10 51° W 06:46:01 10° S
Cosmos 2221 2.5 06:44:18 10° S 06:48:34 88° W 06:52:49 10° N
DELTA 2 R/B(2) 4.5 06:45:54 10° NW 06:48:36 79° SW 06:53:37 10° SE
Ariane H10-3 1.1 06:45:52 10° W 06:49:26 60° N 06:51:29 10° E
Ariane H10+ 4.1 06:45:02 10° W 07:12:14 70° N 07:18:52 10° ENE
